| time (UTC) | temp F | wind direction | speed MPH | gust MPH | rain 1hr in | rain 24hr in | rain mn in | humidity % | barometer mb |
| 20260507072521 | 41 | 345 | 0.0 | 0.0 | 0.00 | 0.00 | 0.00 | 96 | 1014.5 |
| 20260507072018 | 41 | 345 | 0.0 | 0.0 | 0.00 | 0.00 | 0.00 | 96 | 1014.3 |
| 20260507071516 | 41 | 345 | 0.0 | 0.0 | 0.00 | 0.00 | 0.00 | 96 | 1014.4 |
| 20260507071012 | 42 | 345 | 0.0 | 0.0 | 0.00 | 0.00 | 0.00 | 96 | 1014.3 |
| 20260507070509 | 42 | 345 | 0.0 | 0.0 | 0.00 | 0.00 | 0.00 | 96 | 1014.5 |
| 20260507070010 | 42 | 345 | 0.0 | 0.0 | 0.00 | 0.00 | 0.00 | 96 | 1014.5 |
| 20260507065502 | 42 | 345 | 0.0 | 0.0 | 0.00 | 0.00 | 0.00 | 96 | 1014.8 |
| 20260507065000 | 42 | 345 | 0.0 | 1.0 | 0.00 | 0.00 | 0.00 | 96 | 1014.4 |
| 20260507064458 | 42 | 346 | 1.0 | 1.0 | 0.00 | 0.00 | 0.00 | 96 | 1014.6 |
| 20260507063956 | 42 | 347 | 0.0 | 0.0 | 0.00 | 0.00 | 0.00 | 96 | 1014.5 |
| 20260507063452 | 42 | 347 | 0.0 | 0.0 | 0.00 | 0.00 | 0.00 | 96 | 1014.4 |
| 20260507062949 | 42 | 347 | 0.0 | 0.0 | 0.00 | 0.00 | 0.00 | 96 | 1014.6 |
| 20260507062446 | 42 | 347 | 0.0 | 0.0 | 0.00 | 0.00 | 0.00 | 96 | 1014.5 |
| 20260507061944 | 42 | 347 | 0.0 | 0.0 | 0.00 | 0.00 | 0.00 | 95 | 1014.9 |
| 20260507061442 | 42 | 347 | 0.0 | 0.0 | 0.00 | 0.00 | 0.00 | 95 | 1014.5 |
| 20260507060940 | 42 | 347 | 0.0 | 0.0 | 0.00 | 0.00 | 0.00 | 95 | 1014.6 |
| 20260507060436 | 42 | 347 | 0.0 | 0.0 | 0.00 | 0.00 | 0.00 | 96 | 1014.7 |
| 20260507055933 | 42 | 347 | 0.0 | 0.0 | 0.00 | 0.00 | 0.00 | 95 | 1014.4 |
| 20260507055428 | 42 | 347 | 0.0 | 0.0 | 0.00 | 0.00 | 0.00 | 95 | 1014.8 |
| 20260507054925 | 42 | 347 | 0.0 | 0.0 | 0.00 | 0.00 | 0.00 | 95 | 1014.8 |
| 20260507054421 | 42 | 347 | 0.0 | 0.0 | 0.00 | 0.00 | 0.00 | 95 | 1014.8 |
| 20260507053919 | 42 | 347 | 0.0 | 0.0 | 0.00 | 0.00 | 0.00 | 94 | 1014.6 |
| 20260507053416 | 42 | 347 | 0.0 | 0.0 | 0.00 | 0.00 | 0.00 | 94 | 1014.6 |
| 20260507052915 | 43 | 347 | 0.0 | 0.0 | 0.00 | 0.00 | 0.00 | 94 | 1014.9 |
| 20260507052412 | 43 | 347 | 0.0 | 0.0 | 0.00 | 0.00 | 0.00 | 94 | 1014.9 |
| 20260507051909 | 43 | 347 | 0.0 | 1.0 | 0.00 | 0.00 | 0.00 | 94 | 1014.6 |
| 20260507051407 | 43 | 316 | 1.0 | 1.0 | 0.00 | 0.00 | 0.00 | 94 | 1014.8 |
| 20260507050903 | 43 | 315 | 0.0 | 0.0 | 0.00 | 0.00 | 0.00 | 94 | 1014.9 |
| 20260507050400 | 43 | 315 | 0.0 | 0.0 | 0.00 | 0.00 | 0.00 | 93 | 1015.0 |
| 20260507045857 | 44 | 315 | 0.0 | 0.0 | 0.00 | 0.00 | 0.00 | 93 | 1015.1 |
| 20260507045353 | 44 | 315 | 0.0 | 0.0 | 0.00 | 0.00 | 0.00 | 94 | 1015.1 |
| 20260507044850 | 44 | 315 | 0.0 | 0.0 | 0.00 | 0.00 | 0.00 | 94 | 1015.1 |
| 20260507044347 | 44 | 315 | 0.0 | 0.0 | 0.00 | 0.00 | 0.00 | 94 | 1014.9 |
| 20260507043843 | 44 | 315 | 0.0 | 0.0 | 0.00 | 0.00 | 0.00 | 94 | 1015.0 |
| 20260507043340 | 44 | 315 | 0.0 | 0.0 | 0.00 | 0.00 | 0.00 | 94 | 1015.0 |
| 20260507042836 | 44 | 316 | 0.0 | 0.0 | 0.00 | 0.00 | 0.00 | 93 | 1015.0 |
| 20260507042332 | 44 | 316 | 0.0 | 0.0 | 0.00 | 0.00 | 0.00 | 93 | 1015.0 |
| 20260507041829 | 44 | 316 | 0.0 | 0.0 | 0.00 | 0.00 | 0.00 | 93 | 1015.0 |
| 20260507041325 | 44 | 315 | 0.0 | 0.0 | 0.00 | 0.00 | 0.00 | 93 | 1014.8 |
| 20260507040822 | 45 | 315 | 0.0 | 0.0 | 0.00 | 0.00 | 0.00 | 93 | 1014.9 |
| 20260507040318 | 45 | 315 | 0.0 | 0.0 | 0.00 | 0.00 | 0.00 | 93 | 1014.6 |
| 20260507035814 | 45 | 316 | 0.0 | 0.0 | 0.00 | 0.50 | 0.50 | 93 | 1014.6 |
| 20260507035310 | 44 | 315 | 0.0 | 0.0 | 0.00 | 0.50 | 0.50 | 93 | 1014.9 |
| 20260507034808 | 45 | 315 | 0.0 | 0.0 | 0.00 | 0.50 | 0.50 | 92 | 1014.7 |
| 20260507034305 | 45 | 315 | 0.0 | 0.0 | 0.00 | 0.50 | 0.50 | 92 | 1015.0 |
| 20260507033803 | 46 | 316 | 0.0 | 0.0 | 0.00 | 0.50 | 0.50 | 92 | 1014.9 |
| 20260507033300 | 45 | 315 | 0.0 | 0.0 | 0.00 | 0.50 | 0.50 | 92 | 1015.1 |
| 20260507032757 | 45 | 315 | 0.0 | 0.0 | 0.00 | 0.50 | 0.50 | 91 | 1014.8 |
| 20260507032253 | 45 | 316 | 0.0 | 0.0 | 0.00 | 0.50 | 0.50 | 90 | 1015.0 |
| 20260507031750 | 46 | 316 | 0.0 | 0.0 | 0.00 | 0.50 | 0.50 | 89 | 1014.9 |
| 20260507031247 | 46 | 316 | 0.0 | 0.0 | 0.00 | 0.50 | 0.50 | 89 | 1014.8 |
| 20260507030743 | 46 | 316 | 0.0 | 0.0 | 0.00 | 0.50 | 0.50 | 88 | 1015.0 |
| 20260507030241 | 47 | 315 | 0.0 | 0.0 | 0.00 | 0.50 | 0.50 | 88 | 1015.0 |
| 20260507025738 | 47 | 315 | 0.0 | 0.0 | 0.00 | 0.50 | 0.50 | 86 | 1015.2 |
| 20260507025235 | 48 | 315 | 0.0 | 0.0 | 0.00 | 0.50 | 0.50 | 86 | 1014.9 |
| 20260507024733 | 48 | 316 | 0.0 | 0.0 | 0.00 | 0.50 | 0.50 | 87 | 1014.9 |
| 20260507024230 | 49 | 316 | 0.0 | 0.0 | 0.00 | 0.50 | 0.50 | 87 | 1015.1 |
| 20260507023725 | 49 | 315 | 0.0 | 0.0 | 0.00 | 0.50 | 0.50 | 86 | 1014.9 |
| 20260507023223 | 49 | 316 | 0.0 | 0.0 | 0.00 | 0.50 | 0.50 | 83 | 1015.0 |
| 20260507022720 | 50 | 315 | 0.0 | 0.0 | 0.00 | 0.50 | 0.50 | 82 | 1014.8 |
| 20260507022216 | 50 | 315 | 0.0 | 0.0 | 0.00 | 0.50 | 0.50 | 78 | 1015.1 |
| 20260507021712 | 50 | 315 | 0.0 | 0.0 | 0.00 | 0.50 | 0.50 | 72 | 1015.0 |
| 20260507021207 | 51 | 315 | 0.0 | 0.0 | 0.00 | 0.50 | 0.50 | 67 | 1014.9 |
| 20260507020707 | 51 | 315 | 0.0 | 0.0 | 0.00 | 0.50 | 0.50 | 64 | 1014.7 |
| 20260507020202 | 51 | 315 | 0.0 | 0.0 | 0.00 | 0.50 | 0.50 | 65 | 1014.9 |
| 20260507015700 | 51 | 316 | 0.0 | 0.0 | 0.00 | 0.50 | 0.50 | 67 | 1014.7 |
| 20260507015157 | 51 | 315 | 0.0 | 0.0 | 0.00 | 0.50 | 0.50 | 70 | 1014.8 |
| 20260507014653 | 51 | 316 | 0.0 | 0.0 | 0.00 | 0.50 | 0.50 | 66 | 1014.7 |
| 20260507014150 | 51 | 315 | 0.0 | 1.0 | 0.00 | 0.50 | 0.50 | 67 | 1014.6 |
| 20260507013647 | 51 | 315 | 0.0 | 0.0 | 0.00 | 0.50 | 0.50 | 71 | 1014.7 |
| 20260507013144 | 52 | 315 | 0.0 | 0.0 | 0.00 | 0.50 | 0.50 | 70 | 1014.5 |
| 20260507012642 | 52 | 318 | 1.0 | 2.0 | 0.00 | 0.50 | 0.50 | 62 | 1014.2 |
| 20260507012137 | 52 | 355 | 1.0 | 2.0 | 0.00 | 0.50 | 0.50 | 63 | 1014.2 |
| 20260507011635 | 53 | 323 | 1.0 | 2.0 | 0.00 | 0.50 | 0.50 | 62 | 1014.2 |
| 20260507011131 | 53 | 318 | 1.0 | 2.0 | 0.00 | 0.50 | 0.50 | 61 | 1014.5 |
| 20260507010626 | 53 | 323 | 1.0 | 3.0 | 0.00 | 0.50 | 0.50 | 62 | 1014.1 |
| 20260507010122 | 53 | 319 | 3.0 | 4.0 | 0.00 | 0.50 | 0.50 | 62 | 1014.2 |
| 20260507005619 | 53 | 325 | 2.0 | 3.0 | 0.00 | 0.50 | 0.50 | 63 | 1014.2 |
| 20260507005115 | 53 | 323 | 2.0 | 4.0 | 0.00 | 0.50 | 0.50 | 62 | 1014.4 |
| 20260507004613 | 54 | 337 | 5.0 | 7.0 | 0.00 | 0.50 | 0.50 | 60 | 1014.4 |
| 20260507004110 | 54 | 299 | 2.0 | 6.0 | 0.00 | 0.50 | 0.50 | 59 | 1014.2 |
| 20260507003606 | 54 | 322 | 1.0 | 3.0 | 0.00 | 0.50 | 0.50 | 60 | 1014.1 |
| 20260507003101 | 54 | 318 | 3.0 | 4.0 | 0.00 | 0.50 | 0.50 | 59 | 1014.2 |
| 20260507002558 | 54 | 320 | 5.0 | 6.0 | 0.00 | 0.50 | 0.50 | 57 | 1013.9 |
| 20260507002053 | 54 | 322 | 6.0 | 7.0 | 0.00 | 0.50 | 0.50 | 58 | 1014.0 |
| 20260507001550 | 54 | 323 | 6.0 | 8.0 | 0.00 | 0.50 | 0.50 | 57 | 1013.9 |
| 20260507001048 | 54 | 329 | 5.0 | 7.0 | 0.00 | 0.50 | 0.50 | 58 | 1013.9 |
| 20260507000544 | 55 | 316 | 4.0 | 6.0 | 0.00 | 0.50 | 0.50 | 60 | 1013.8 |
| 20260507000039 | 55 | 320 | 4.0 | 7.0 | 0.00 | 0.50 | 0.50 | 61 | 1013.5 |
| 20260506235537 | 55 | 336 | 5.0 | 9.0 | 0.00 | 0.50 | 0.50 | 57 | 1013.4 |
| 20260506235032 | 55 | 356 | 2.0 | 6.0 | 0.00 | 0.50 | 0.50 | 60 | 1013.3 |
| 20260506234531 | 55 | 327 | 3.0 | 7.0 | 0.00 | 0.50 | 0.50 | 59 | 1013.2 |
| 20260506234027 | 55 | 324 | 3.0 | 6.0 | 0.00 | 0.50 | 0.50 | 60 | 1013.4 |
| 20260506233524 | 55 | 352 | 5.0 | 7.0 | 0.00 | 0.50 | 0.50 | 59 | 1013.4 |
| 20260506233021 | 56 | 310 | 4.0 | 8.0 | 0.00 | 0.50 | 0.50 | 59 | 1013.2 |
| 20260506232517 | 56 | 304 | 4.0 | 6.0 | 0.00 | 0.50 | 0.50 | 59 | 1012.9 |
| 20260506232013 | 56 | 355 | 6.0 | 8.0 | 0.00 | 0.50 | 0.50 | 57 | 1013.0 |
| 20260506231510 | 56 | 5 | 8.0 | 9.0 | 0.00 | 0.50 | 0.50 | 55 | 1012.9 |
| 20260506231008 | 56 | 5 | 5.0 | 8.0 | 0.00 | 0.50 | 0.50 | 58 | 1013.3 |
| 20260506230504 | 56 | 347 | 4.0 | 8.0 | 0.00 | 0.50 | 0.50 | 61 | 1013.0 |
| 20260506230002 | 56 | 9 | 4.0 | 7.0 | 0.00 | 0.50 | 0.50 | 60 | 1013.1 |
| 20260506225459 | 56 | 16 | 5.0 | 7.0 | 0.00 | 0.50 | 0.50 | 60 | 1013.0 |
| 20260506224954 | 56 | 11 | 3.0 | 8.0 | 0.00 | 0.50 | 0.50 | 61 | 1013.2 |
| 20260506224452 | 56 | 307 | 4.0 | 8.0 | 0.00 | 0.50 | 0.50 | 57 | 1013.3 |
| 20260506223948 | 56 | 330 | 8.0 | 10.0 | 0.00 | 0.50 | 0.50 | 56 | 1013.8 |
| 20260506223444 | 56 | 320 | 4.0 | 8.0 | 0.00 | 0.50 | 0.50 | 58 | 1013.4 |
| 20260506222941 | 56 | 316 | 5.0 | 9.0 | 0.00 | 0.50 | 0.50 | 56 | 1013.4 |
| 20260506222438 | 56 | 317 | 8.0 | 9.0 | 0.00 | 0.50 | 0.50 | 56 | 1013.2 |
| 20260506221935 | 57 | 319 | 4.0 | 7.0 | 0.00 | 0.50 | 0.50 | 56 | 1013.4 |
| 20260506221432 | 57 | 317 | 6.0 | 8.0 | 0.00 | 0.50 | 0.50 | 55 | 1013.7 |
| 20260506220930 | 57 | 318 | 1.0 | 8.0 | 0.00 | 0.50 | 0.50 | 56 | 1013.6 |
| 20260506220425 | 57 | 332 | 8.0 | 11.0 | 0.00 | 0.50 | 0.50 | 53 | 1013.6 |
| 20260506215922 | 57 | 334 | 6.0 | 8.0 | 0.00 | 0.50 | 0.50 | 53 | 1013.5 |
| 20260506215418 | 57 | 319 | 7.0 | 8.0 | 0.00 | 0.50 | 0.50 | 52 | 1013.6 |
| 20260506214914 | 57 | 325 | 3.0 | 7.0 | 0.00 | 0.50 | 0.50 | 53 | 1013.7 |
| 20260506214411 | 57 | 340 | 5.0 | 6.0 | 0.00 | 0.50 | 0.50 | 52 | 1013.5 |
| 20260506213909 | 58 | 355 | 3.0 | 8.0 | 0.00 | 0.50 | 0.50 | 54 | 1013.2 |
| 20260506213406 | 58 | 336 | 4.0 | 6.0 | 0.00 | 0.50 | 0.50 | 56 | 1013.1 |
| 20260506212903 | 58 | 8 | 4.0 | 6.0 | 0.00 | 0.50 | 0.50 | 57 | 1013.1 |
| 20260506212359 | 58 | 9 | 4.0 | 6.0 | 0.00 | 0.50 | 0.50 | 54 | 1013.1 |
| 20260506211854 | 58 | 354 | 6.0 | 8.0 | 0.00 | 0.50 | 0.50 | 56 | 1013.1 |
| 20260506211350 | 58 | 349 | 4.0 | 8.0 | 0.00 | 0.50 | 0.50 | 56 | 1013.2 |
| 20260506210848 | 59 | 322 | 7.0 | 10.0 | 0.00 | 0.50 | 0.50 | 51 | 1013.0 |
| 20260506210344 | 59 | 333 | 4.0 | 7.0 | 0.00 | 0.50 | 0.50 | 47 | 1013.0 |
| 20260506205842 | 59 | 266 | 1.0 | 2.0 | 0.00 | 0.50 | 0.50 | 52 | 1013.0 |
| 20260506205337 | 59 | 321 | 4.0 | 8.0 | 0.00 | 0.50 | 0.50 | 51 | 1012.8 |
| 20260506204834 | 59 | 293 | 5.0 | 7.0 | 0.00 | 0.50 | 0.50 | 50 | 1012.7 |
| 20260506204332 | 60 | 322 | 4.0 | 7.0 | 0.00 | 0.50 | 0.50 | 48 | 1013.0 |
| 20260506203829 | 60 | 6 | 1.0 | 2.0 | 0.00 | 0.50 | 0.50 | 54 | 1012.9 |
| 20260506203326 | 60 | 344 | 2.0 | 7.0 | 0.00 | 0.50 | 0.50 | 59 | 1012.9 |
| 20260506202823 | 60 | 2 | 4.0 | 7.0 | 0.00 | 0.50 | 0.50 | 53 | 1012.8 |
| 20260506202320 | 60 | 43 | 2.0 | 6.0 | 0.00 | 0.50 | 0.50 | 53 | 1012.7 |
| 20260506201816 | 60 | 2 | 5.0 | 9.0 | 0.00 | 0.50 | 0.50 | 53 | 1012.8 |
| 20260506201314 | 60 | 323 | 4.0 | 6.0 | 0.00 | 0.50 | 0.50 | 48 | 1012.9 |
| 20260506200811 | 60 | 299 | 4.0 | 7.0 | 0.00 | 0.50 | 0.50 | 48 | 1013.1 |
| 20260506200307 | 60 | 242 | 1.0 | 2.0 | 0.00 | 0.50 | 0.50 | 50 | 1013.0 |
| 20260506195803 | 60 | 0 | 4.0 | 6.0 | 0.00 | 0.50 | 0.50 | 53 | 1013.0 |
| 20260506195300 | 60 | 46 | 0.0 | 2.0 | 0.00 | 0.50 | 0.50 | 51 | 1013.0 |
| 20260506194757 | 61 | 0 | 3.0 | 4.0 | 0.00 | 0.50 | 0.50 | 52 | 1013.0 |
| 20260506194253 | 60 | 352 | 0.0 | 4.0 | 0.00 | 0.50 | 0.50 | 52 | 1012.8 |
| 20260506193752 | 60 | 22 | 3.0 | 7.0 | 0.00 | 0.50 | 0.50 | 54 | 1012.8 |
| 20260506193248 | 60 | 22 | 6.0 | 8.0 | 0.00 | 0.50 | 0.50 | 57 | 1012.7 |
| 20260506192744 | 60 | 329 | 3.0 | 3.0 | 0.00 | 0.50 | 0.50 | 49 | 1012.9 |
| 20260506192241 | 60 | 29 | 3.0 | 6.0 | 0.00 | 0.50 | 0.50 | 55 | 1012.7 |
| 20260506191738 | 61 | 9 | 3.0 | 6.0 | 0.00 | 0.50 | 0.50 | 55 | 1012.9 |
| 20260506191234 | 61 | 314 | 2.0 | 3.0 | 0.00 | 0.50 | 0.50 | 55 | 1012.4 |
| 20260506190732 | 61 | 323 | 4.0 | 7.0 | 0.00 | 0.50 | 0.50 | 52 | 1012.7 |
| 20260506190228 | 60 | 9 | 4.0 | 8.0 | 0.00 | 0.50 | 0.50 | 60 | 1012.7 |
| 20260506185725 | 60 | 63 | 4.0 | 6.0 | 0.00 | 0.50 | 0.50 | 58 | 1012.5 |
| 20260506185221 | 59 | 10 | 6.0 | 11.0 | 0.00 | 0.50 | 0.50 | 56 | 1012.4 |
| 20260506184719 | 59 | 24 | 7.0 | 8.0 | 0.00 | 0.50 | 0.50 | 56 | 1012.5 |
| 20260506184216 | 60 | 334 | 4.0 | 6.0 | 0.00 | 0.50 | 0.50 | 51 | 1012.7 |
| 20260506183713 | 59 | 20 | 7.0 | 9.0 | 0.00 | 0.50 | 0.50 | 56 | 1012.5 |
| 20260506183209 | 59 | 8 | 4.0 | 9.0 | 0.00 | 0.50 | 0.50 | 50 | 1012.8 |
| 20260506182706 | 59 | 19 | 6.0 | 8.0 | 0.00 | 0.50 | 0.50 | 59 | 1012.7 |
| 20260506182203 | 59 | 308 | 4.0 | 7.0 | 0.00 | 0.50 | 0.50 | 63 | 1012.8 |
| 20260506181701 | 59 | 52 | 5.0 | 9.0 | 0.00 | 0.50 | 0.50 | 62 | 1012.8 |
| 20260506181158 | 59 | 358 | 6.0 | 8.0 | 0.00 | 0.50 | 0.50 | 58 | 1012.8 |
| 20260506180655 | 59 | 11 | 5.0 | 8.0 | 0.00 | 0.50 | 0.50 | 55 | 1012.4 |
| 20260506180151 | 59 | 26 | 5.0 | 7.0 | 0.00 | 0.50 | 0.50 | 63 | 1013.0 |
| 20260506175648 | 58 | 43 | 4.0 | 6.0 | 0.00 | 0.50 | 0.50 | 63 | 1013.0 |
| 20260506175145 | 58 | 8 | 3.0 | 8.0 | 0.00 | 0.50 | 0.50 | 58 | 1013.2 |
| 20260506174643 | 57 | 9 | 3.0 | 10.0 | 0.00 | 0.50 | 0.50 | 58 | 1012.9 |
| 20260506174139 | 58 | 37 | 6.0 | 8.0 | 0.00 | 0.50 | 0.50 | 57 | 1013.1 |
| 20260506173637 | 58 | 27 | 5.0 | 8.0 | 0.00 | 0.50 | 0.50 | 60 | 1013.2 |
| 20260506173134 | 58 | 324 | 5.0 | 8.0 | 0.00 | 0.50 | 0.50 | 60 | 1013.1 |
| 20260506172631 | 57 | 14 | 5.0 | 8.0 | 0.00 | 0.50 | 0.50 | 61 | 1013.1 |
| 20260506172127 | 57 | 8 | 7.0 | 8.0 | 0.00 | 0.50 | 0.50 | 62 | 1013.1 |
| 20260506171625 | 58 | 37 | 6.0 | 8.0 | 0.00 | 0.50 | 0.50 | 61 | 1013.1 |
| 20260506171122 | 58 | 8 | 5.0 | 9.0 | 0.00 | 0.50 | 0.50 | 63 | 1013.4 |
| 20260506170620 | 57 | 62 | 3.0 | 7.0 | 0.00 | 0.50 | 0.50 | 65 | 1013.4 |
| 20260506170117 | 56 | 293 | 5.0 | 8.0 | 0.00 | 0.50 | 0.50 | 62 | 1013.3 |
| 20260506165615 | 56 | 13 | 6.0 | 7.0 | 0.00 | 0.50 | 0.50 | 66 | 1013.2 |
| 20260506165111 | 56 | 17 | 7.0 | 9.0 | 0.00 | 0.50 | 0.50 | 67 | 1013.2 |
| 20260506164608 | 56 | 19 | 3.0 | 6.0 | 0.00 | 0.50 | 0.50 | 65 | 1013.1 |
| 20260506164106 | 56 | 15 | 5.0 | 8.0 | 0.00 | 0.50 | 0.50 | 67 | 1013.2 |
| 20260506163601 | 56 | 20 | 3.0 | 8.0 | 0.00 | 0.50 | 0.50 | 71 | 1013.1 |
| 20260506163057 | 56 | 317 | 4.0 | 8.0 | 0.00 | 0.50 | 0.50 | 69 | 1013.0 |
| 20260506162554 | 56 | 10 | 4.0 | 7.0 | 0.00 | 0.50 | 0.50 | 65 | 1013.0 |
| 20260506162051 | 55 | 22 | 2.0 | 6.0 | 0.00 | 0.50 | 0.50 | 68 | 1013.1 |
| 20260506161549 | 54 | 27 | 4.0 | 7.0 | 0.00 | 0.50 | 0.50 | 70 | 1013.2 |
| 20260506161045 | 55 | 17 | 4.0 | 7.0 | 0.00 | 0.50 | 0.50 | 70 | 1013.1 |
| 20260506160543 | 54 | 18 | 4.0 | 8.0 | 0.00 | 0.50 | 0.50 | 68 | 1013.3 |
| 20260506160039 | 55 | 310 | 7.0 | 9.0 | 0.00 | 0.50 | 0.50 | 67 | 1013.3 |
| 20260506155538 | 55 | 348 | 5.0 | 9.0 | 0.00 | 0.50 | 0.50 | 72 | 1013.4 |
| 20260506153709 | 55 | 40 | 6.0 | 9.0 | 0.00 | 0.50 | 0.50 | 73 | 1012.8 |
| 20260506153207 | 54 | 10 | 3.0 | 6.0 | 0.00 | 0.50 | 0.50 | 70 | 1012.8 |
| 20260506152703 | 54 | 296 | 5.0 | 8.0 | 0.00 | 0.50 | 0.50 | 69 | 1012.8 |
| 20260506152201 | 54 | 9 | 5.0 | 7.0 | 0.00 | 0.50 | 0.50 | 75 | 1012.7 |
| 20260506151700 | 53 | 353 | 4.0 | 7.0 | 0.00 | 0.50 | 0.50 | 73 | 1012.8 |
| 20260506151156 | 54 | 13 | 3.0 | 7.0 | 0.00 | 0.50 | 0.50 | 74 | 1012.5 |
| 20260506150652 | 53 | 352 | 3.0 | 4.0 | 0.00 | 0.50 | 0.50 | 75 | 1012.4 |
| 20260506150150 | 53 | 305 | 4.0 | 7.0 | 0.00 | 0.50 | 0.50 | 73 | 1012.5 |
| 20260506145646 | 53 | 34 | 5.0 | 10.0 | 0.00 | 0.50 | 0.50 | 75 | 1012.0 |
| 20260506145143 | 53 | 16 | 3.0 | 8.0 | 0.00 | 0.50 | 0.50 | 73 | 1012.0 |
| 20260506144641 | 53 | 19 | 5.0 | 8.0 | 0.00 | 0.50 | 0.50 | 77 | 1012.0 |
| 20260506144137 | 53 | 4 | 5.0 | 8.0 | 0.00 | 0.50 | 0.50 | 78 | 1012.2 |
| 20260506143635 | 52 | 9 | 5.0 | 9.0 | 0.00 | 0.50 | 0.50 | 76 | 1012.2 |
| 20260506143133 | 51 | 358 | 4.0 | 8.0 | 0.00 | 0.50 | 0.50 | 78 | 1012.0 |
| 20260506142631 | 51 | 4 | 5.0 | 8.0 | 0.00 | 0.50 | 0.50 | 77 | 1011.6 |
| 20260506142129 | 51 | 1 | 6.0 | 8.0 | 0.00 | 0.50 | 0.50 | 78 | 1011.8 |
| 20260506141626 | 51 | 9 | 5.0 | 8.0 | 0.00 | 0.50 | 0.50 | 79 | 1011.8 |
| 20260506141124 | 51 | 12 | 6.0 | 7.0 | 0.00 | 0.50 | 0.50 | 81 | 1011.6 |
| 20260506140622 | 51 | 5 | 5.0 | 8.0 | 0.00 | 0.50 | 0.50 | 80 | 1011.7 |
| 20260506140119 | 51 | 7 | 5.0 | 7.0 | 0.00 | 0.50 | 0.50 | 81 | 1011.7 |
| 20260506135615 | 50 | 7 | 6.0 | 7.0 | 0.00 | 0.50 | 0.50 | 82 | 1011.6 |
| 20260506135112 | 50 | 9 | 4.0 | 8.0 | 0.00 | 0.50 | 0.50 | 83 | 1011.7 |
| 20260506134608 | 50 | 4 | 4.0 | 6.0 | 0.00 | 0.50 | 0.50 | 82 | 1011.6 |
| 20260506134104 | 50 | 12 | 5.0 | 7.0 | 0.00 | 0.50 | 0.50 | 83 | 1011.4 |
| 20260506133602 | 50 | 7 | 4.0 | 8.0 | 0.00 | 0.50 | 0.50 | 84 | 1011.6 |
| 20260506133058 | 49 | 351 | 3.0 | 6.0 | 0.00 | 0.50 | 0.50 | 87 | 1011.3 |
| 20260506132556 | 48 | 8 | 5.0 | 6.0 | 0.00 | 0.50 | 0.50 | 87 | 1011.2 |
| 20260506132053 | 48 | 351 | 4.0 | 8.0 | 0.00 | 0.50 | 0.50 | 87 | 1011.2 |
| 20260506131550 | 48 | 3 | 7.0 | 9.0 | 0.00 | 0.50 | 0.50 | 87 | 1011.2 |
| 20260506131046 | 48 | 7 | 6.0 | 7.0 | 0.00 | 0.50 | 0.50 | 88 | 1011.2 |
| 20260506130543 | 48 | 13 | 5.0 | 7.0 | 0.00 | 0.50 | 0.50 | 89 | 1011.1 |
| 20260506130041 | 47 | 11 | 4.0 | 7.0 | 0.00 | 0.50 | 0.50 | 89 | 1011.0 |
| 20260506125539 | 47 | 9 | 3.0 | 4.0 | 0.00 | 0.50 | 0.50 | 90 | 1011.0 |
| 20260506125036 | 47 | 10 | 4.0 | 7.0 | 0.00 | 0.50 | 0.50 | 89 | 1011.0 |
| 20260506124534 | 47 | 3 | 4.0 | 7.0 | 0.00 | 0.50 | 0.50 | 91 | 1011.1 |
| 20260506124032 | 47 | 347 | 2.0 | 7.0 | 0.00 | 0.50 | 0.50 | 90 | 1011.2 |
| 20260506123529 | 47 | 6 | 5.0 | 8.0 | 0.00 | 0.50 | 0.50 | 90 | 1011.2 |
| 20260506123027 | 47 | 6 | 6.0 | 9.0 | 0.00 | 0.50 | 0.50 | 91 | 1010.8 |
| 20260506122523 | 47 | 9 | 7.0 | 8.0 | 0.00 | 0.50 | 0.50 | 92 | 1010.6 |
| 20260506122022 | 46 | 9 | 6.0 | 8.0 | 0.00 | 0.50 | 0.50 | 93 | 1010.6 |
| 20260506121519 | 47 | 323 | 5.0 | 9.0 | 0.00 | 0.50 | 0.50 | 94 | 1010.6 |
| 20260506121015 | 46 | 13 | 6.0 | 8.0 | 0.00 | 0.50 | 0.50 | 94 | 1010.3 |
| 20260506120513 | 46 | 6 | 3.0 | 6.0 | 0.00 | 0.50 | 0.50 | 94 | 1010.4 |
| 20260506120010 | 46 | 319 | 4.0 | 7.0 | 0.00 | 0.50 | 0.50 | 94 | 1010.4 |
| 20260506115508 | 46 | 47 | 2.0 | 6.0 | 0.00 | 0.50 | 0.50 | 94 | 1010.5 |
| 20260506115007 | 46 | 347 | 5.0 | 8.0 | 0.00 | 0.50 | 0.50 | 94 | 1010.2 |
| 20260506114503 | 46 | 347 | 5.0 | 7.0 | 0.00 | 0.50 | 0.50 | 94 | 1009.9 |
| 20260506114002 | 46 | 11 | 4.0 | 7.0 | 0.00 | 0.50 | 0.50 | 93 | 1009.7 |
| 20260506113459 | 46 | 354 | 6.0 | 9.0 | 0.00 | 0.50 | 0.50 | 93 | 1010.0 |
| 20260506112956 | 46 | 11 | 6.0 | 8.0 | 0.00 | 0.50 | 0.50 | 93 | 1009.7 |
| 20260506112453 | 46 | 291 | 4.0 | 7.0 | 0.00 | 0.50 | 0.50 | 93 | 1010.0 |
| 20260506111950 | 46 | 2 | 5.0 | 8.0 | 0.00 | 0.50 | 0.50 | 93 | 1009.7 |
| 20260506111448 | 46 | 356 | 4.0 | 7.0 | 0.00 | 0.50 | 0.50 | 93 | 1009.2 |
| 20260506110945 | 46 | 0 | 5.0 | 8.0 | 0.00 | 0.50 | 0.50 | 93 | 1008.9 |
| 20260506110443 | 46 | 13 | 6.0 | 8.0 | 0.00 | 0.50 | 0.50 | 93 | 1009.0 |
| 20260506105939 | 46 | 327 | 5.0 | 7.0 | 0.00 | 0.50 | 0.50 | 93 | 1009.0 |
| 20260506105436 | 46 | 16 | 4.0 | 6.0 | 0.00 | 0.50 | 0.50 | 93 | 1008.9 |
| 20260506104933 | 46 | 341 | 5.0 | 6.0 | 0.00 | 0.50 | 0.50 | 93 | 1008.8 |
| 20260506104431 | 46 | 8 | 6.0 | 8.0 | 0.00 | 0.50 | 0.50 | 93 | 1008.5 |
| 20260506103929 | 46 | 9 | 6.0 | 8.0 | 0.00 | 0.50 | 0.50 | 93 | 1008.2 |
| 20260506103426 | 46 | 11 | 4.0 | 7.0 | 0.00 | 0.50 | 0.50 | 94 | 1008.2 |
| 20260506102923 | 46 | 14 | 7.0 | 8.0 | 0.00 | 0.50 | 0.50 | 94 | 1008.1 |
| 20260506102421 | 46 | 52 | 3.0 | 7.0 | 0.07 | 0.50 | 0.50 | 94 | 1008.1 |
| 20260506101918 | 46 | 12 | 6.0 | 9.0 | 0.07 | 0.50 | 0.50 | 93 | 1008.3 |
| 20260506101414 | 46 | 21 | 5.0 | 8.0 | 0.00 | 0.49 | 0.49 | 94 | 1008.5 |
| 20260506100911 | 46 | 10 | 6.0 | 8.0 | 0.00 | 0.49 | 0.49 | 94 | 1008.4 |
| 20260506100410 | 46 | 355 | 5.0 | 8.0 | 0.00 | 0.49 | 0.49 | 94 | 1008.5 |
| 20260506095908 | 47 | 11 | 4.0 | 7.0 | 0.00 | 0.49 | 0.49 | 94 | 1008.6 |
| 20260506095406 | 47 | 340 | 4.0 | 7.0 | 0.00 | 0.49 | 0.49 | 94 | 1008.6 |
| 20260506094901 | 47 | 3 | 6.0 | 8.0 | 0.00 | 0.49 | 0.49 | 94 | 1008.3 |
| 20260506094401 | 47 | 6 | 5.0 | 8.0 | 0.00 | 0.49 | 0.49 | 94 | 1007.9 |
| 20260506093858 | 47 | 11 | 5.0 | 9.0 | 0.00 | 0.49 | 0.49 | 94 | 1008.1 |
| 20260506093355 | 47 | 24 | 4.0 | 7.0 | 0.00 | 0.49 | 0.49 | 94 | 1008.1 |
| 20260506092853 | 47 | 13 | 5.0 | 8.0 | 0.00 | 0.49 | 0.49 | 94 | 1008.0 |
| 20260506092351 | 47 | 7 | 7.0 | 9.0 | 0.00 | 0.49 | 0.49 | 94 | 1007.9 |
| 20260506091847 | 47 | 7 | 7.0 | 10.0 | 0.00 | 0.49 | 0.49 | 94 | 1008.0 |
| 20260506091345 | 47 | 10 | 6.0 | 10.0 | 0.00 | 0.49 | 0.49 | 94 | 1008.1 |
| 20260506090842 | 47 | 3 | 6.0 | 9.0 | 0.00 | 0.49 | 0.49 | 94 | 1008.1 |
| 20260506090340 | 47 | 359 | 6.0 | 8.0 | 0.00 | 0.49 | 0.49 | 94 | 1007.7 |
| 20260506085836 | 47 | 12 | 7.0 | 8.0 | 0.00 | 0.49 | 0.49 | 94 | 1007.8 |
| 20260506085332 | 47 | 7 | 10.0 | 14.0 | 0.00 | 0.49 | 0.49 | 94 | 1007.7 |
| 20260506084829 | 47 | 19 | 9.0 | 14.0 | 0.00 | 0.49 | 0.49 | 95 | 1007.5 |
| 20260506084326 | 47 | 23 | 5.0 | 7.0 | 0.00 | 0.49 | 0.49 | 95 | 1007.5 |
| 20260506083822 | 47 | 358 | 5.0 | 13.0 | 0.00 | 0.49 | 0.49 | 95 | 1007.5 |
| 20260506083320 | 47 | 16 | 6.0 | 8.0 | 0.00 | 0.49 | 0.49 | 95 | 1007.5 |
| 20260506082818 | 47 | 355 | 6.0 | 9.0 | 0.00 | 0.49 | 0.49 | 95 | 1007.6 |
| 20260506082313 | 47 | 14 | 7.0 | 11.0 | 0.00 | 0.49 | 0.49 | 95 | 1007.7 |
| 20260506081810 | 48 | 359 | 6.0 | 11.0 | 0.00 | 0.49 | 0.49 | 95 | 1007.3 |
| 20260506081308 | 48 | 4 | 7.0 | 9.0 | 0.05 | 0.49 | 0.49 | 96 | 1007.2 |
| 20260506080806 | 48 | 319 | 5.0 | 9.0 | 0.05 | 0.49 | 0.49 | 96 | 1007.2 |
| 20260506080302 | 48 | 12 | 5.0 | 10.0 | 0.07 | 0.48 | 0.48 | 95 | 1007.3 |
| 20260506073246 | 51 | 10 | 8.0 | 10.0 | 0.12 | 0.42 | 0.42 | 95 | 1006.7 |